Regional Weather Roundup
Issued by NWS Wakefield, VA

Home | Current Version | Previous Version | Graphics & Text | Print | Product List | Glossary Off
Versions: 1 2 3 4 5 6 7 8 9 10 11 12 13 14 15 16 17 18 19 20 21 22 23 24 25 26 27

000
ASUS41 KAKQ 300515
RWRAKQ

REGIONAL WEATHER ROUNDUP
NATIONAL WEATHER SERVICE WAKEFIELD VA
100 AM EDT THU MAR 30 2017

Note: "fair" indicates few or no clouds below 12,000 feet with no
significant weather and/or obstructions to visibility. * = Denotes
station may not report precipitation (e.g., rain,snow,etc.),
thunder or fog.

VAZ042-051-052>054-056-300600-
NORTHERN VIRGINIA

CITY           SKY/WX    TMP DP  RH WIND       PRES   REMARKS
WASH NATIONAL  CLEAR     52  34  50 NE6       30.20S
DULLES         CLEAR     48  32  53 NE6       30.19S
FORT BELVOIR   CLEAR     52  30  43 CALM      30.19S
QUANTICO       CLEAR     53  40  61 E9        30.20S
FREDERICKSBRG* CLEAR     46  40  78 CALM      30.19R
STAFFORD*      CLEAR     46  36  69 CALM      30.23R
WARRENTON      CLEAR     47  35  63 NE5       30.18F
CULPEPER*      CLEAR     42  38  87 CALM      30.20S
MANASSAS*      CLEAR     46  36  68 CALM      30.19S
LEESBURG*      CLEAR     50  36  57 NE6       30.21S
WINCHESTER     CLEAR     41  34  75 CALM      30.18S
FRONT ROYAL*   CLEAR     50  34  53 E7        30.17R
LURAY*         CLEAR     48  39  71 NE3       30.17R
$$

VAZ048-049-060>072-079>083-300600-
CENTRAL AND SOUTH CENTRAL VIRGINIA

CITY           SKY/WX    TMP DP  RH WIND       PRES   REMARKS
RICHMOND       PTCLDY    48  43  82 E3        30.17R
CHESTERFIELD*  FAIR     N/A N/A N/A CALM      30.19R
PETERSBURG*    CLEAR     42  41  95 CALM      30.18R
HANOVER        CLEAR     49  36  61 CALM      30.19R
TAPPAHANNOCK*  CLEAR     51  27  40 CALM      30.19R
QUINTON*       FAIR      46  44  90 CALM      30.17S
CHARLOTTSVILLE PTCLDY    54  37  52 E7        30.17R
GORDONSVILLE*  MOCLDY    49  39  66 CALM      30.17R
ORANGE*        MOCLDY    45  39  81 CALM      30.19R
LOUISA*        CLOUDY    55  41  58 E5        30.17R
BUMPASS*       FAIR      49  37  61 E3        30.18R
FARMVILLE*     CLOUDY    58  48  70 E9        30.15R
CREWE*         CLOUDY    53  45  75 CALM      30.16S
FORT PICKETT*  CLOUDY    50  40  66 E5        30.16S
CHASE CITY*    MOCLDY    56  53  92 E5        30.14S
CLARKSVILLE*   MOCLDY    57  52  82 E6        30.13S
SOUTH HILL*    CLOUDY    52  48  87 CALM      30.21R
LAWRENCEVILLE* FAIR      51  46  83 CALM      30.16S
EMPORIA*       CLEAR     45  43  93 CALM      30.18S
$$

VAZ088>098-300600-
SOUTHEAST VIRGINIA

CITY           SKY/WX    TMP DP  RH WIND       PRES   REMARKS
NORFOLK        CLEAR     47  44  90 CALM      30.17S
VIRGINIA BEACH CLEAR     43  40  89 CALM      30.16F
NORFOLK NAVAL  NOT AVBL
WEST POINT*    PTCLDY    42  40  92 CALM      30.20R
SALUDA*        FAIR      45  45 100 CALM      30.17F
NEWPORT NEWS   CLEAR     45  43  93 E6        30.17F
LANGLEY AFB    CLEAR     48  46  95 CALM      30.17S
FORT EUSTIS    CLEAR     47  44  89 E3        30.15S
WILLIAMSBURG*  CLEAR     48  46  93 CALM      30.18F
HR EXEC AP*    FAIR      39  36  87 CALM      30.17S
FRANKLIN*      CLEAR     46  44  92 CALM      30.17S
US460-WAKEFLD  CLEAR     44  42  93 CALM      30.17S
$$

VAZ020-022-025-037-045-300600-
WEST CENTRAL AND SOUTHWEST VIRGINIA

CITY           SKY/WX    TMP DP  RH WIND       PRES   REMARKS
STAUNTON*      CLOUDY    49  40  71 CALM      30.17S
WAYNESBORO*    CLOUDY    55  36  48 SE7       30.15S
HOT SPRINGS VA CLOUDY    50  34  53 E9        30.15S
LYNCHBURG      CLOUDY    59  39  47 E9        30.16R
DANVILLE       PTCLDY    57  50  77 E5        30.11S
SOUTH BOSTON*  CLOUDY    59  51  74 E6        30.13S
MARTINSVILLE   MOCLDY    57  49  74 CALM      30.13R
ROANOKE        CLOUDY    61  43  51 SE9       30.15R
BLACKSBURG     CLOUDY    58  48  71 E9        30.15R
DUBLIN*        CLOUDY    59  49  70 E6        30.12S
MARION*        CLEAR     55  48  77 NE7       30.11F
HILLSVILLE*    PTCLDY    56  50  79 CALM      30.10S
RICHLANDS*     FAIR      59  47  65 SE6       30.05F
WISE*          CLEAR     57  45  62 CALM      30.05F
ABINGDON*      CLEAR     58  47  68 E3        30.05S
$$

MDZ021>025-VAZ099-100-300600-
SOUTHERN MARYLAND AND THE DELMARVA PENINSULA

CITY           SKY/WX    TMP DP  RH WIND       PRES   REMARKS
PATUXENT RIVER CLEAR     46  40  79 NE9       30.18S
BAY BRIDGE APT CLEAR     48  30  49 NE9       30.19S
LEONARDTOWN    CLEAR     46  34  61 CALM      30.19S
DOVER          CLEAR     44  34  68 NE12      30.18F
GEORGETOWN     PTCLDY    46  32  58 NE8       30.18F
EASTON         CLEAR     48  30  50 E8        30.22F
CAMBRIDGE      CLEAR     50  30  46 NE6G12    30.19R
SALISBURY      CLEAR     45  33  63 NE6       30.18S
OCEAN CITY     CLEAR     46  37  71 NE7       30.19S
WALLOPS ISLAND CLEAR     46  39  76 N7        30.19S
ACCOMACK*        N/A     40  39  97 CALM      30.17F FOG
$$

NCZ012>017-030>032-300600-
NORTH CENTRAL AND EASTERN NORTH CAROLINA

CITY           SKY/WX    TMP DP  RH WIND       PRES   REMARKS
ROANOKE RAPIDS FAIR      50  48  93 CALM      30.17R
RALEIGH        PTCLDY    60  52  74 SE8       30.12R
ELIZABETH CITY CLEAR     48  45  89 E5        30.17F
AHOSKIE*         N/A     47  46  97 CALM      30.17S
EDENTON*       CLEAR     48  46  91 CALM      30.16F
CURRITUCK*     CLEAR     47  47 100 CALM      30.18F
KILL DEVIL HLS NOT AVBL
MANTEO         CLEAR     48  46  93 E8        30.17S
CAPE HATTERAS  CLEAR     53  46  77 E8        30.15S
TARBORO*       NOT AVBL
GOLDSBORO      CLEAR     53  53 100 E7        30.13R
WASHINGTON     CLEAR     47  45  93 CALM      30.16S
GREENVILLE     CLEAR     52  48  87 CALM      30.17R
NEW BERN       CLEAR     52  49  89 E5        30.16R
WILMINGTON     CLEAR     58  56  93 E9        30.12F
$$

VAZ048-300600-
ELSEWHERE

CITY           SKY/WX    TMP DP  RH WIND       PRES   REMARKS
HARRISBURG PA  CLOUDY    45  27  49 NE5       30.22S
BALTIMORE      PTCLDY    48  29  47 NE8       30.20R
ANNAPOLIS      CLEAR     51  35  54 NE6       30.18F
ANDREWS AFB    CLEAR     47  30  51 NE5       30.18S
PHILADELPHIA   PTCLDY    46  25  43 N18       30.22F
HENDERSON NC   PTCLDY    54  48  80 SE7       30.13F
GREENSBORO     CLOUDY    61  54  77 SE6       30.08S
ROCKY MOUNT    CLEAR     53  51  93 E3        30.15R
$$

VAZ100-300600-
MARINE

STATION/POSITION TIME  TEMP    WIND        PRES    WAVE   SWELL
                       AIR SEA DIR/SP/G            HT/PER HT/PER
                 (UTC) (F)     (DEG/KT/KT) (MB)    (FT/S) (FT/S)
CAPE MAY NJ      0448   47 46   40/  7/ 11 1022.2F
LEWES DE         0448   48 49   50/ 13/ 16 1022.2F
OCEAN-CITY-INLET 0448   48 45   50/  3/  6 1022.8R
WACHAPREAGUE VA  0448   42 57  310/  2/  3 1021.3F
THOMAS POINT MD  0500   50 48   60/  9/  9   N/A
GOOSES REEF MD   0450   51      80/  8/ 10 1022.8F
COVE POINT MD    0448   51      50/  6/  8 1022.7F
SOLOMONS ISLAND  0448   51 49   40/  4/  6   N/A
BISHOPS HEAD MD  0448   52 56   50/ 11/ 13 1022.2F
PINEY POINT MD   0448          120/  5/  5   N/A
POTOMAC MD       0450   49     130/  4/  6 1021.0F
CAMBRIDGE MD     0442   51 50   50/ 12/ 16 1021.1F
LEWISETTA VA     0448   53 54  110/  9/ 11 1021.6F
RAPPAHANNOCK LGT 0448          210/  3/  3 1022.4F
STINGRAY PT      0450   48     150/  4/  6 1021.4F
YORK RVR RNG VA  0448   49     130/  6/  7 1021.2S
YORKTOWN VA      0448   49 52  110/  5/  6 1021.5F
JAMESTOWN VA     0450   50      80/  4/  6   N/A
DOMINION TERM VA 0448   49     110/  6/  8 1021.6F
KIPTOPEKE VA     0448      51                N/A
CAPE HENRY VA    0448   48     130/  3/  3   N/A
WILLOUBY STN VA  0448   49     100/  4/  5 1022.5F
S CRANEY ISL VA  0448   49     130/  5/  5 1021.5S
CAPE HENRY BUOY  0442      51                N/A     3/11   2/11
CAPE CHARLES BUO 0451      51                N/A     3/ 7   2/11
OFFSHORE WE BUOY 0451      49                N/A     4/ 7   2/11
64NM E OF VA BCH 0450   50 50   50/  6/  6 1020.9F   5/ 9   5/ 9
DUCK PIER NC     0448   49 51   80/  6/  6 1021.2S
44100 DUCK FRF   0435      51                N/A     5/ 7   2/11
44056 DUCK FRF   0430      51                N/A     4/ 8   2/11
OREGON INLET NC  0442   49 57   40/  7/  9 1021.3R
HATTERAS NC      0448   54 61   70/  8/ 13 1020.5F
DIAMOND SHLS NC  0450   60 73   50/ 19/ 21 1020.3F   7/ 9   5/ 9
CAPE LOOKOUT NC  0400   60      60/ 18/ 20 1020.2F
$$




USA.gov is the U.S. government's official web portal to all federal, state and local government web resources and services.